Regional Weather Roundup
Issued by NWS New Orleans/Baton Rouge, LA

Home | Current Version | Previous Version | Text Only | Print | Product List | Glossary On
Versions: 1 2 3 4 5 6 7 8 9 10 11 12 13 14 15 16 17 18 19 20 21 22 23 24 25 26 27 28 29 30 31 32 33 34 35 36 37 38 39 40 41 42 43 44 45 46 47 48 49 50
000
ASUS44 KLIX 200310
RWRLIX
NEW ORLEANS REGIONAL WEATHER ROUNDUP
NATIONAL WEATHER SERVICE NEW ORLEANS LA
1000 PM CDT SAT APR 19 2014

NOTE: "FAIR" INDICATES FEW OR NO CLOUDS BELOW 12,000 FEET WITH NO
      SIGNIFICANT WEATHER AND/OR OBSTRUCTIONS TO VISIBILITY.
      SKY/WX - SKY CONDITION AND SIGNIFICANT WEATHER.
      TMP - AIR TEMPERATURE.     DP    - DEWPOINT TEMPERATURE.
      RH  - RELATIVE HUMIDITY.   PRES  - PRESSURE.
      HI  - HEAT INDEX.          WCI   - WIND CHILL INDEX.

*  THESE STATIONS ARE NOT NWS OR FAA STATIONS AND ARE NOT UNDER
   NWS QUALITY CONTROL.

LAZ038-040-048-061>063-065>067-069-200400-
SOUTHEAST LOUISIANA

CITY           SKY/WX    TMP DP  RH WIND       PRES   REMARKS
N.O. AUDUBON   NOT AVBL
N.O. INTL ARPT PTCLDY    68  58  70 NE6       30.11S
N.O. LAKEFRONT CLEAR     69  62  78 NW5       30.12S
N.O. DOWNTOWN*   N/A     73  52  46 N3        30.12S
SLIDELL        CLEAR     62  53  72 CALM      30.12R
BATON ROUGE    CLEAR     64  55  72 N3        30.13R
BOOTHVILLE     CLEAR     65  62  90 W6        30.12R
BELLE CHASSE   PTCLDY    59  55  87 CALM      30.11S
BOGALUSA*        N/A     60  55  82 CALM      30.14R
GALLIANO*      CLEAR     64  61  88 CALM      30.12S
NEW ROADS*       N/A     63  57  83 CALM      30.14R
GONZALES*        N/A     63  58  82 CALM      30.12R
HAMMOND*       CLEAR     59  54  82 CALM      30.14S
HOUMA*           N/A     61  58  89 CALM      30.12S
PORT FOURCHON* CLEAR     68  61  77 W8        30.14R

$$

MSZ070-080>082-200400-
SOUTHERN MISSISSIPPI

CITY           SKY/WX    TMP DP  RH WIND       PRES   REMARKS
MCCOMB         CLEAR     60  52  74 CALM      30.15R
GULFPORT       CLEAR     64  55  72 CALM      30.10S
BILOXI         CLEAR     64  55  72 N2        30.10S
PASCAGOULA     CLEAR     59  57  93 CALM      30.10S

$$

COASTAL OBSERVATIONS
LAKE AND NEARSHORE STATIONS

STATION/POSITION TIME  TEMP    WIND        PRES    WAVE
                       AIR SEA DIR/SP/G            HT/PER
                 (UTC) (F)     (DEG/KT/KT) (MB)    (FT/S)
PASCAGOULA       0300   66     360/  6/  7 1018.6
WAVELAND YACHT   0300   69 70  300/  3/  3 1018.9
GRAND ISLE       0300   68 69  280/  9/ 10 1020.1
SOUTHWEST PASS   0300   66 59  300/  7/ 10 1020.0
NEW CANAL        0300   71 67  360/  4/  4 1020.2
SHELL BEACH      0300   70 66  300/  5/  6 1019.7

OFFSHORE STATIONS

STATION/POSITION TIME  TEMP    WIND        PRES    WAVE
                       AIR SEA DIR/SP/G            HT/PER
                 (UTC) (F)     (DEG/KT/KT) (MB)    (FT/S)
64 S DAUPHIN ISL 0240   70 71  310/ 12/ 14 1019.3

$$




USA.gov is the U.S. government's official web portal to all federal, state and local government web resources and services.